FALCON 9 DEB (45798 NORAD) Tracking and Keplerian Element Data

This shows tracking and keplerian element data for the satellite.

Feedback or suggestion? Click here.




ElementValue
Catalog45798
NameFALCON 9 DEB
Epoch Orbit445
Epoch Day192.13135296
Epoch Year2020
RAAN160.3393
Inclination52.9938
Eccentricity0.0062146
Argument of Perigee144.924
Mean Anonmoly215.5912
Mean Motion16.14181005
Decay Rate0.00574054
L11 45798U 20038BS 20192.13135296 .00574054 11671-4 31463-3 0 9995
L22 45798 52.9938 160.3393 0062146 144.9240 215.5912 16.14181005 4454

Live tracking and technical data element details for FALCON 9 DEB (NORAD 45798). FALCON 9 DEB can be tracked NOW for your location showing map with azimuth and elevation plus other details from your city location.

Track the satellite on the map from your city or location and see movement details for azimuth, elevation, latitude, longitude, range, height, and movement on the map or in text.







IsCatalogInMostPopularTable: catalog: 45798, numindb: 5
Update: records affected: 1



GetName: 45798 FALCON 9 DEB

Hit Count: updated at: Fri, 10 Jul 2020 15:26:43 GMT